Yaogan 31 hao 03 zu 01 xing

operational
NORAD ID: 47691 Int'l Des: 2021-014 Owner: ZLZB Country: CN Constellation: yaogan
LEO

Über Yaogan 31 hao 03 zu 01 xing

Beschreibung wird geladen...

Live-Position

3D-Globus wird geladen...

Nächste Überflüge

Höhenverlauf

Altitude vs Time

uPlot chart will show altitude changes over time

Zweizeiliger Elementsatz

1 47691U 21014A 26071.17216534 .00000083 00000-0 26879-3 0 9996
2 47691 63.4029 87.1647 0168627 0.2266 359.8808 13.45441707247721
Epoch: 12. März 2026 • Age: 12 hours

Aktueller Status

Höhe 1214.8 km
Geschwindigkeit 7.19 km/s
Subsatellitenpunkt -14.51°S, 80.07°W
Startdatum 24. Feb. 2021
Alter 5 years
Typ military

Technische Details

Klassifizierung Payload
Masse 500.00 kg
Trockenmasse 500.00 kg
Gesamtmasse 500.00 kg
Länge 0.50 m
Durchmesser 0.50 m
Spannweite 1.00 m
Form Box + 2 Pan
Hersteller DFHZ
Bus-Typ JB-8B
Phasenstatus In Orbit
Besitzer/Staat ZLZB/CN

Große Konstellationen

Loading constellations...